Погода в Нижне-Кубенском

Россия / Вологодская область     59°58′21″N   39°56′58″E
темп.,
°C
ветер,
м/с
пор.,
м/с
влажн.,
%
обл.,
%
осадки,
мм/ч
давл.,
гПа
погр.,
м
6 марта, сб
сб600:00−16зсз229866 0.0 101120
03:00−17зсз239876 0.1 101385
06:00−19зсз229992 0.0 101321
09:00−16зсз139459 0.0 1014126
12:00−10зюз248750 0.0 1013453
15:00−8зюз358575 0.1 1011703
18:00−11ююз2495100 0.1 1009101
21:00−13ююз389787 0.1 1007205
7 марта, вс
вс700:00−13ю4119691 0.0 1003278
03:00−11ю5148996 0.0 999548
06:00−10ю61392100 0.4 994777
09:00−9ююв61292100 1.1 991728
12:00−7ююв61189100 0.4 989724
15:00−7юв51092100 0.8 988720
18:00−7вюв41094100 1.2 988649
21:00−9всв51094100 2.3 989567
8 марта, пн
пн800:00−10св51093100 0.5 991598
03:00−11св41193100 0.8 993545
06:00−12ссв51192100 0.2 995612
09:00−13ссв51091100 0.3 999610
12:00−12с5990100 0.1 1001612
15:00−12с5988100 0.1 1004775
18:00−14с4992100 0.1 1007637
21:00−19с41095100 0.1 1010479
9 марта, вт
вт900:00−23с3898100 0.0 1012265
03:00−26ссз379886 0.0 1014177
06:00−28ссз379854 0.0 1016164
09:00−27с369553 0.0 1017254
12:00−22ссз359268 0.0 1018394
15:00−19ссз368982 0.0 1019556
18:00−22ссз2696100 0.0 1020106
21:00−26с249866 0.0 102275
10 марта, ср
ср1000:00−28с22980 0.0 102322
03:00−29ссз22970 0.0 102420
06:00−29сз22980 0.0 102419
09:00−23зсз249620 0.0 1025160
12:00−17зсз368997 0.0 1024341
15:00−14зсз368899 0.0 1023428
18:00−15зсз389596 0.0 1023235
21:00−18зсз389684 0.0 1024171